Overview Statistics Trail Chart Weather Telemetry Raw packets
 

This is the latest recevied weather packets stored in our database for station/object DF7ER-12. If no packets are shown the sender has not sent any weather packets the latest 10 day(s).

<< 71 72 73 74 75 76 77 >>
Time Temp. Humidity Pressure Rain* Wind** Luminosity Snow
1788161481 23.33° C 78% 999.5 hPa - - - -
1788161181 22.78° C 80% 999.5 hPa - - - -
1788160881 23.33° C 80% 999.5 hPa - - - -
1788160581 22.22° C 83% 999.5 hPa - - - -
1788160281 22.22° C 82% 999.6 hPa - - - -
1788159981 21.67° C 83% 999.6 hPa - - - -
1788159681 21.67° C 82% 999.6 hPa - - - -
1788159381 21.67° C 82% 999.6 hPa - - - -
1788159081 21.11° C 83% 999.6 hPa - - - -
1788158781 21.11° C 84% 999.6 hPa - - - -
1788158481 21.67° C 82% 999.5 hPa - - - -
1788158181 21.67° C 82% 999.5 hPa - - - -
1788157881 21.11° C 82% 999.5 hPa - - - -
1788157581 21.11° C 82% 999.4 hPa - - - -
1788157281 20.56° C 83% 999.4 hPa - - - -
1788156981 20.56° C 82% 999.4 hPa - - - -
1788156681 20.56° C 83% 999.4 hPa - - - -
1788156381 20.56° C 82% 999.3 hPa - - - -
1788156081 20.56° C 82% 999.2 hPa - - - -
1788155781 20.56° C 82% 999.3 hPa - - - -
1788155481 20.56° C 83% 999.2 hPa - - - -
1788155181 20.56° C 83% 999.3 hPa - - - -
1788154881 20° C 83% 999.3 hPa - - - -
1788154581 20.56° C 83% 999.3 hPa - - - -
1788154281 20.56° C 83% 999.3 hPa - - - -

* Rain since midnight (hover to see other rain measurements)
** Current wind speed in m/s (hover to see current wind gust speed)